Location: Baller�as
(41.9020°N, 0.1554°W)
Time: 01:39:07
(UTC+00:00)

Cosmos 192 - Pass Details

Date: 10 August 2020
Orbit: 701 x 713 km, 74.0° (Epoch: 22 September)

Event Time Altitude Azimuth Distance (km) Brightness Sun altitude
Rises 21:04:56 0° 341° (NNW) 3,098 8.7 -19.3°
Reaches altitude 10° 21:07:16 10° 343° (NNW) 2,177 7.7 -19.6°
Maximum altitude 21:12:11 79° 70° (ENE) 721 4.2 -20.3°
Enters shadow 21:13:38 46° 149° (SSE) 942 4.5 -20.4°
